Weather History for Laredo, TX

Change the Weather History Date:

Wednesday, September 26, 2012

  Actual Average Record
Temperature  
Mean Temperature 87 °F 80 °F  
Max Temperature 96 °F 91 °F 106 °F (2005)
Min Temperature 77 °F 70 °F 51 °F (1989)
Degree Days  
Heating Degree Days 0 0  
Month to date heating degree days 0 0  
Since 1 July heating degree days 0 0  
Cooling Degree Days 22 15  
Month to date cooling degree days 528 481  
Year to date cooling degree days 4356 3724  
Growing Degree Days 36 (Base 50)    
Moisture  
Dew Point 70 °F    
Average Humidity 64    
Maximum Humidity 82    
Minimum Humidity 34    
Precipitation  
Precipitation 0.00 in 0.09 in 1.91 in (1980)
Month to date precipitation 0.29 2.58  
Year to date precipitation 6.19 15.57  
Sea Level Pressure  
Sea Level Pressure 29.92 in    
Wind  
Wind Speed 15 mph (SE)    
Max Wind Speed 24 mph    
Max Gust Speed 29 mph    
Visibility 10 miles    
Events      
T = Trace of Precipitation, MM = Missing Value Source: NWS Daily Summary

Daily Weather History Graph

Daily Weather History Graph

Search for Another Location

Airport:

Trip Planner

Search our weather history database for the weather conditions in past years. The results will help you decide how hot, cold, wet, or windy it might be!

Date:

Astronomy

Sep. 26, 2012 Rise Set
Actual Time 7:28 AM CDT 7:29 PM CDT
Civil Twilight 7:05 AM CDT 7:52 PM CDT
Nautical Twilight 6:38 AM CDT 8:19 PM CDT
Astronomical Twilight 6:10 AM CDT 8:46 PM CDT
Moon 5:17 PM CDT (9/26) 4:11 AM CDT (9/26)
Length of Visible Light 12h 47m
Length of Day
12h 00m
Waxing Gibbous, 88% of the Moon is Illuminated
Sep 26
Waxing Gibbous
Sep 29
Full
Oct 8
Last Quarter
Oct 15
New
Oct 21
First Quarter

Hourly Weather History & Observations

Time (CDT) Temp. Heat Index Dew Point Humidity Pressure Visibility Wind Dir Wind Speed Gust Speed Precip Events Conditions
12:56 AM 81.0 °F 84.4 °F 70.0 °F 69% 29.91 in 10.0 mi SSE 15.0 mph 24.2 mph N/A   Clear
1:56 AM 79.9 °F - 70.0 °F 72% 29.91 in 10.0 mi SSE 17.3 mph - N/A   Clear
2:56 AM 79.0 °F - 70.9 °F 76% 29.91 in 10.0 mi SE 11.5 mph - N/A   Partly Cloudy
3:56 AM 77.9 °F - 70.9 °F 79% 29.90 in 10.0 mi SSE 13.8 mph - N/A   Partly Cloudy
4:56 AM 77.9 °F - 70.9 °F 79% 29.90 in 10.0 mi SSE 11.5 mph - N/A   Scattered Clouds
5:07 AM 78.8 °F - 71.6 °F 78% 29.93 in 10.0 mi SE 11.5 mph - N/A   Mostly Cloudy
5:56 AM 77.0 °F - 72.0 °F 84% 29.90 in 10.0 mi SE 9.2 mph - N/A   Mostly Cloudy
6:56 AM 77.0 °F - 71.6 °F 83% 29.95 in 10.0 mi SE 11.5 mph - N/A   Mostly Cloudy
7:15 AM 77.0 °F - 71.6 °F 83% 29.95 in 10.0 mi SE 12.7 mph - N/A   Scattered Clouds
7:56 AM 77.0 °F - 72.0 °F 84% 29.92 in 10.0 mi SE 10.4 mph - N/A   Clear
8:56 AM 79.9 °F - 72.0 °F 77% 29.94 in 10.0 mi SSE 15.0 mph - N/A   Partly Cloudy
9:14 AM 80.6 °F 84.6 °F 71.6 °F 74% 29.98 in 10.0 mi SSE 15.0 mph - N/A   Mostly Cloudy
9:56 AM 81.9 °F 86.6 °F 72.0 °F 72% 29.96 in 10.0 mi South 16.1 mph - N/A   Mostly Cloudy
10:56 AM 86.0 °F 90.7 °F 70.0 °F 59% 29.96 in 10.0 mi SSE 15.0 mph - N/A   Mostly Cloudy
11:13 AM 87.8 °F 92.6 °F 69.8 °F 55% 30.00 in 10.0 mi SSE 17.3 mph - N/A   Scattered Clouds
11:56 AM 89.6 °F 94.7 °F 69.8 °F 52% 29.99 in 10.0 mi South 16.1 mph - N/A   Scattered Clouds
12:56 PM 90.0 °F 92.8 °F 66.9 °F 46% 29.94 in 10.0 mi SE 12.7 mph - N/A   Scattered Clouds
1:56 PM 92.8 °F 95.6 °F 65.8 °F 41% 29.91 in 10.0 mi SSE 12.7 mph - N/A   Scattered Clouds
2:56 PM 95.0 °F 97.4 °F 64.9 °F 37% 29.88 in 10.0 mi South 11.5 mph 19.6 mph N/A   Partly Cloudy
3:56 PM 95.0 °F 97.4 °F 64.9 °F 37% 29.86 in 10.0 mi SE 13.8 mph 17.3 mph N/A   Mostly Cloudy
4:56 PM 95.9 °F 97.5 °F 63.0 °F 34% 29.85 in 10.0 mi SSE 9.2 mph - N/A   Scattered Clouds
5:56 PM 93.9 °F 97.5 °F 66.9 °F 41% 29.86 in 10.0 mi East 17.3 mph 23.0 mph N/A   Partly Cloudy
6:56 PM 90.0 °F 94.5 °F 68.9 °F 50% 29.87 in 10.0 mi ESE 20.7 mph - N/A   Partly Cloudy
7:56 PM 86.0 °F 90.7 °F 70.0 °F 59% 29.89 in 10.0 mi ESE 21.9 mph 28.8 mph N/A   Clear
8:56 PM 83.8 °F 88.6 °F 70.9 °F 65% 29.91 in 10.0 mi ESE 23.0 mph 26.5 mph N/A   Clear
9:56 PM 82.9 °F 88.0 °F 72.0 °F 69% 29.94 in 10.0 mi ESE 18.4 mph 23.0 mph N/A   Clear
10:56 PM 81.9 °F 86.6 °F 72.0 °F 72% 29.96 in 10.0 mi SE 17.3 mph - N/A   Clear
11:56 PM 81.0 °F 85.2 °F 72.0 °F 74% 29.96 in 10.0 mi SE 13.8 mph - N/A   Clear